Regional Weather Roundup
Issued by NWS Boston, MA

Home | Current Version | Previous Version | Text Only | Print | Product List | Glossary On
Versions: 1 2 3 4 5 6 7 8 9 10 11 12 13 14 15 16 17 18 19 20 21 22 23 24 25 26 27 28 29 30 31 32 33 34 35 36 37 38 39 40 41 42 43 44 45 46 47 48 49 50
000
ASUS41 KBOX 210010
RWRBOX

REGIONAL WEATHER ROUNDUP
NATIONAL WEATHER SERVICE TAUNTON MA
800 PM EDT WED AUG 20 2014

NOTE:  "FAIR" INDICATES FEW OR NO CLOUDS BELOW 12,000 FEET WITH NO
SIGNIFICANT WEATHER AND/OR OBSTRUCTIONS TO VISIBILITY.  THE FOLLOWING
OBSERVATION LOCATIONS DO NOT REPORT PRESENT WEATHER...PROVINCETOWN...
SMITHFIELD...BLOCK ISLAND...KEENE...AND OXFORD.

MAZALL-210100-
EASTERN MASSACHUSETTS

CITY           SKY/WX    TMP DP  RH WIND       PRES   REMARKS
BOSTON         MOCLDY    65  61  87 E6        30.04S
6HR MIN TEMP:  65; 6HR MAX TEMP:  73;

BEVERLY        CLEAR     64  56  75 SE3       30.04R
LAWRENCE       CLEAR     66  55  67 CALM      30.06R
BEDFORD        PTCLDY    66  53  63 E5        30.03R
BLUE HILL      NOT AVBL
NORWOOD        PTCLDY    67  59  75 NE3       30.03R
MARSHFIELD     NOT AVBL
PLYMOUTH       PTCLDY    66  58  75 E5        30.04S
TAUNTON        PTCLDY    62  56  80 CALM      30.03R
NEW BEDFORD    PTCLDY    65  55  70 NE3       30.03R
$$

MAZALL-210100-
CAPE COD AND THE ISLANDS

CITY           SKY/WX    TMP DP  RH WIND       PRES   REMARKS
FALMOUTH       PTCLDY    66  59  77 NE5       30.04R
HYANNIS        CLOUDY    66  58  75 NE3       30.03R
CHATHAM        PTCLDY    66  59  78 NE5       30.05R
PROVINCETOWN   PTCLDY    63  55  77 MISG      30.05S
NANTUCKET      CLEAR     63  58  83 NE7       30.03R
MARTHAS VNYRD  MOCLDY    63  59  87 E3        30.03R
$$

MAZALL-210100-
CENTRAL AND WESTERN MASSACHUSETTS

CITY           SKY/WX    TMP DP  RH WIND       PRES   REMARKS
WORCESTER      CLEAR     70  54  56 E6        30.06R
6HR MIN TEMP:  70; 6HR MAX TEMP:  79;

FITCHBURG      CLEAR     72  56  57 CALM      30.05R
ORANGE         MOCLDY    73  60  63 SE5       30.03R
SPRINGFIELD    MOCLDY    76  62  61 SE3       30.00R
WESTFIELD      CLOUDY    73  66  78 E3        30.00R
NORTH ADAMS    CLOUDY    74  62  66 CALM      30.01R
PITTSFIELD     MOCLDY    70  63  78 SE6       30.02R
$$

RIZALL-210100-
RHODE ISLAND

CITY           SKY/WX    TMP DP  RH WIND       PRES   REMARKS
PROVIDENCE     PTCLDY    68  59  73 S6        30.04R
6HR MIN TEMP:  68; 6HR MAX TEMP:  80;

NEWPORT        CLEAR     65  59  81 CALM      30.04R
BLOCK ISLAND   CLEAR     66  57  72 SE3       30.04S
SMITHFIELD     CLEAR     63  55  77 E5        30.04S
WESTERLY       CLEAR     68  61  78 CALM      30.04R
$$

CTZALL-210100-
CONNECTICUT

CITY           SKY/WX    TMP DP  RH WIND       PRES   REMARKS
BRADLEY INTL   PTCLDY    77  61  57 S9        29.99R
6HR MIN TEMP:  77; 6HR MAX TEMP:  84;

HARTFORD       CLEAR     74  58  57 S6        30.00R
BRIDGEPORT     CLEAR     75  63  66 S10       30.01R
DANBURY        CLEAR     72  61  68 S6        30.03R
GROTON         CLEAR     67  59  75 SE3       30.02S
NEW HAVEN      CLEAR     74  61  63 S10       30.02R
CHESTER        FAIR      68  63  83 SE6       30.04R
MERIDEN        CLEAR     73  56  54 S3        30.01R
WILLIMANTIC    CLEAR     72  60  66 S5        30.03R
OXFORD         PTCLDY    70  59  68 S6        30.05R
$$

MEZ002-015-021-024-NHZ003-005-008-011-012-014-VTZ005-008-210100-
NORTHERN NEW ENGLAND

CITY           SKY/WX    TMP DP  RH WIND       PRES   REMARKS
PORTLAND ME    PTCLDY    65  56  72 S5        30.05S
6HR MIN TEMP:  65; 6HR MAX TEMP:  77;

BANGOR ME      MOCLDY    72  61  68 S6        30.03R
CONCORD NH     CLEAR     68  57  68 SE5       30.04R
MANCHESTER NH  PTCLDY    71  54  54 CALM      30.03R
NASHUA NH      CLEAR     72  52  49 SE3       30.05R
PORTSMOUTH NH  PTCLDY    64  59  82 E2        30.04R
JAFFREY NH     PTCLDY    69  59  70 SE3       30.07R
KEENE NH       MOCLDY    72  55  56 S3        30.03R
BURLINGTON VT  MOCLDY    75  59  57 E6        29.98R
MT. WASHINGTON NOT AVBL
$$

NYZ052-076-210100-
EASTERN NEW YORK

CITY           SKY/WX    TMP DP  RH WIND       PRES   REMARKS
ALBANY         MOCLDY    79  65  62 SE3       29.97R
6HR MIN TEMP:  79; 6HR MAX TEMP:  84;

NEW YORK CITY  PTCLDY    75  59  57 S8        30.00R
6HR MIN TEMP:  75; 6HR MAX TEMP:  84;

$$

ANZALL-210100-
MARINE OBSERVATIONS

STATION/POSITION TIME  TEMP    WIND        PRES    VSBY  WAVE
                       AIR SEA DIR/SP/G                  HT/PER
                 (UTC) (F)     (DEG/KT/KT) (MB)    (MI)  (FT/S)
BOSTON BUOY      2350   66 67   90/  4/  6 1017.4R         1
BUZZARDS BAY     2300          140/  3/  3 1017.5R
NANTUCKET SOUND  2350   67 71   60/ 12/ 12 1016.6R         1/ 6
MASS BAY-STELLWA 2304   69 68   60/  2/  2   N/A    1 7/8  1/ 6
ISLE OF SHOALS   0000   65     140/  3/  3 1017.0R
S OF BLOCK IS    2308      70                N/A           2/10
$$

......................KEY.........................
  SKY/WX - SKY CONDITION/PRESENT WEATHER
  TMP    - TEMPERATURE IN FAHRENHEIT
  DWPT   - DEWPOINT IN FAHRENHEIT
  RH     - RELATIVE HUMIDITY IN PERCENT
  WIND   - DIRECTION AND SPEED IN MPH
  PRES   - MEAN SEA LEVEL PRESSURE IN INCHES OF HG
  WCI    - WIND CHILL INDEX
  VSB    - VISIBILITY IN MILES
  HX     - HEAT INDEX
  TC     - TEMPERATURE IN CELSIUS
  VRB    - VARIABLE WIND DIRECTION
  N/A    - NOT AVAILABLE



USA.gov is the U.S. government's official web portal to all federal, state and local government web resources and services.